Time,TemperatureF,DewpointF,PressureIn,WindDirection,WindDirectionDegrees,WindSpeedMPH,WindSpeedGustMPH,Humidity,HourlyPrecipIn,Conditions,Clouds,dailyrainin,SoftwareType,DateUTC
2013-02-03 00:00:00,30.3,28.8,30.20,SW,229,0.0,2.0,94,0.00,,,0.00,WeatherCatV1.02B3,2013-02-03 06:00:00,
2013-02-03 00:05:00,30.4,28.9,30.20,SW,229,0.0,1.0,94,0.00,,,0.00,WeatherCatV1.02B3,2013-02-03 06:05:00,
2013-02-03 00:10:00,30.5,29.0,30.20,SW,229,0.0,1.0,94,0.00,,,0.00,WeatherCatV1.02B3,2013-02-03 06:10:00,
2013-02-03 00:15:00,30.5,29.0,30.20,SSW,202,2.0,2.0,94,0.00,,,0.00,WeatherCatV1.02B3,2013-02-03 06:15:00,
2013-02-03 00:20:00,30.5,28.7,30.20,SSW,205,0.0,0.0,93,0.00,,,0.00,WeatherCatV1.02B3,2013-02-03 06:20:00,
2013-02-03 00:25:00,30.7,29.2,30.20,West,270,0.0,3.0,94,0.00,,,0.00,WeatherCatV1.02B3,2013-02-03 06:25:00,
2013-02-03 00:30:00,30.8,29.3,30.20,West,261,0.0,1.0,94,0.00,,,0.00,WeatherCatV1.02B3,2013-02-03 06:30:00,
2013-02-03 00:35:00,31.0,29.2,30.20,West,261,0.0,0.0,93,0.00,,,0.00,WeatherCatV1.02B3,2013-02-03 06:35:00,
2013-02-03 00:40:00,31.1,29.3,30.20,West,261,0.0,1.0,93,0.00,,,0.00,WeatherCatV1.02B3,2013-02-03 06:40:00,
2013-02-03 00:45:00,31.4,29.6,30.19,West,261,0.0,0.0,93,0.00,,,0.00,WeatherCatV1.02B3,2013-02-03 06:45:00,
2013-02-03 00:50:00,31.6,29.8,30.20,West,261,0.0,0.0,93,0.00,,,0.00,WeatherCatV1.02B3,2013-02-03 06:50:00,
2013-02-03 00:55:00,31.8,29.7,30.20,West,261,0.0,1.0,92,0.00,,,0.00,WeatherCatV1.02B3,2013-02-03 06:55:00,
2013-02-03 01:00:00,32.0,29.9,30.20,West,261,1.0,1.0,92,0.00,,,0.00,WeatherCatV1.02B3,2013-02-03 07:00:00,
2013-02-03 01:05:00,32.4,30.1,30.22,NW,315,3.0,7.0,91,0.00,,,0.00,WeatherCatV1.02B3,2013-02-03 07:05:00,
2013-02-03 01:10:00,33.0,30.1,30.22,West,281,1.0,4.0,89,0.00,,,0.00,WeatherCatV1.02B3,2013-02-03 07:10:00,
2013-02-03 01:15:00,33.5,30.6,30.22,WNW,289,2.0,5.0,89,0.00,,,0.00,WeatherCatV1.02B3,2013-02-03 07:15:00,
2013-02-03 01:20:00,34.0,31.1,30.22,West,275,2.0,6.0,89,0.00,,,0.00,WeatherCatV1.02B3,2013-02-03 07:20:00,
2013-02-03 01:25:00,34.6,31.4,30.22,WSW,247,4.0,8.0,88,0.00,,,0.00,WeatherCatV1.02B3,2013-02-03 07:25:00,
2013-02-03 01:30:00,35.5,31.7,30.21,NNW,343,3.0,6.0,86,0.00,,,0.00,WeatherCatV1.02B3,2013-02-03 07:30:00,
2013-02-03 01:35:00,36.1,31.7,30.21,NNW,335,3.0,6.0,84,0.00,,,0.00,WeatherCatV1.02B3,2013-02-03 07:35:00,
2013-02-03 01:40:00,36.5,31.8,30.22,WSW,240,5.0,5.0,83,0.00,,,0.00,WeatherCatV1.02B3,2013-02-03 07:40:00,
2013-02-03 01:45:00,37.0,31.7,30.21,West,269,0.0,5.0,81,0.00,,,0.00,WeatherCatV1.02B3,2013-02-03 07:45:00,
2013-02-03 01:50:00,37.3,31.7,30.22,NNW,331,5.0,6.0,80,0.00,,,0.00,WeatherCatV1.02B3,2013-02-03 07:50:00,
2013-02-03 01:55:00,37.7,31.5,30.21,WNW,290,1.0,8.0,78,0.00,,,0.00,WeatherCatV1.02B3,2013-02-03 07:55:00,
2013-02-03 02:00:00,38.0,31.8,30.22,West,278,1.0,7.0,78,0.00,,,0.00,WeatherCatV1.02B3,2013-02-03 08:00:00,
2013-02-03 02:05:00,38.2,31.6,30.22,WNW,294,1.0,6.0,77,0.00,,,0.00,WeatherCatV1.02B3,2013-02-03 08:05:00,
2013-02-03 02:10:00,38.3,31.7,30.22,West,271,5.0,5.0,77,0.00,,,0.00,WeatherCatV1.02B3,2013-02-03 08:10:00,
2013-02-03 02:15:00,38.4,31.5,30.23,WNW,296,2.0,6.0,76,0.00,,,0.00,WeatherCatV1.02B3,2013-02-03 08:15:00,
2013-02-03 02:20:00,38.6,31.7,30.22,NW,323,0.0,4.0,76,0.00,,,0.00,WeatherCatV1.02B3,2013-02-03 08:20:00,
2013-02-03 02:25:00,38.6,31.4,30.22,NW,322,1.0,7.0,75,0.00,,,0.00,WeatherCatV1.02B3,2013-02-03 08:25:00,
2013-02-03 02:30:00,38.7,31.5,30.22,NW,318,6.0,8.0,75,0.00,,,0.00,WeatherCatV1.02B3,2013-02-03 08:30:00,
2013-02-03 02:35:00,38.7,31.5,30.22,NNW,334,8.0,8.0,75,0.00,,,0.00,WeatherCatV1.02B3,2013-02-03 08:35:00,
2013-02-03 02:40:00,38.8,31.6,30.22,WNW,284,3.0,6.0,75,0.00,,,0.00,WeatherCatV1.02B3,2013-02-03 08:40:00,
2013-02-03 02:45:00,38.8,31.2,30.22,West,268,4.0,8.0,74,0.00,,,0.00,WeatherCatV1.02B3,2013-02-03 08:45:00,
2013-02-03 02:50:00,38.7,31.5,30.22,West,280,1.0,3.0,75,0.00,,,0.00,WeatherCatV1.02B3,2013-02-03 08:50:00,
2013-02-03 02:55:00,38.5,31.3,30.22,WNW,284,2.0,5.0,75,0.00,,,0.00,WeatherCatV1.02B3,2013-02-03 08:55:00,
2013-02-03 03:00:00,38.4,31.2,30.22,NW,310,4.0,6.0,75,0.00,,,0.00,WeatherCatV1.02B3,2013-02-03 09:00:00,
2013-02-03 03:05:00,38.3,31.1,30.22,NW,306,4.0,7.0,75,0.00,,,0.00,WeatherCatV1.02B3,2013-02-03 09:05:00,
2013-02-03 03:10:00,38.2,31.0,30.22,NW,313,3.0,4.0,75,0.00,,,0.00,WeatherCatV1.02B3,2013-02-03 09:10:00,
2013-02-03 03:15:00,38.0,30.8,30.22,NW,315,3.0,8.0,75,0.00,,,0.00,WeatherCatV1.02B3,2013-02-03 09:15:00,
2013-02-03 03:20:00,37.7,30.8,30.22,WNW,288,2.0,3.0,76,0.00,,,0.00,WeatherCatV1.02B3,2013-02-03 09:20:00,
2013-02-03 03:25:00,37.5,30.6,30.22,NW,317,3.0,3.0,76,0.00,,,0.00,WeatherCatV1.02B3,2013-02-03 09:25:00,
2013-02-03 03:30:00,37.3,30.4,30.22,NW,309,3.0,7.0,76,0.00,,,0.00,WeatherCatV1.02B3,2013-02-03 09:30:00,
2013-02-03 03:35:00,37.2,30.7,30.21,WNW,294,5.0,5.0,77,0.00,,,0.00,WeatherCatV1.02B3,2013-02-03 09:35:00,
2013-02-03 03:40:00,37.0,30.5,30.21,NW,306,2.0,7.0,77,0.00,,,0.00,WeatherCatV1.02B3,2013-02-03 09:40:00,
2013-02-03 03:45:00,36.9,30.4,30.21,West,279,0.0,3.0,77,0.00,,,0.00,WeatherCatV1.02B3,2013-02-03 09:45:00,
2013-02-03 03:50:00,36.7,30.5,30.22,WNW,296,3.0,7.0,78,0.00,,,0.00,WeatherCatV1.02B3,2013-02-03 09:50:00,
2013-02-03 03:55:00,36.6,30.4,30.22,NW,319,1.0,3.0,78,0.00,,,0.00,WeatherCatV1.02B3,2013-02-03 09:55:00,
2013-02-03 04:00:00,36.4,30.2,30.22,West,280,1.0,6.0,78,0.00,,,0.00,WeatherCatV1.02B3,2013-02-03 10:00:00,
2013-02-03 04:05:00,36.3,30.1,30.22,NW,307,2.0,3.0,78,0.00,,,0.00,WeatherCatV1.02B3,2013-02-03 10:05:00,
2013-02-03 04:10:00,36.1,30.2,30.22,WNW,300,1.0,5.0,79,0.00,,,0.00,WeatherCatV1.02B3,2013-02-03 10:10:00,
2013-02-03 04:15:00,35.9,30.0,30.23,NNW,333,2.0,3.0,79,0.00,,,0.00,WeatherCatV1.02B3,2013-02-03 10:15:00,
2013-02-03 04:20:00,35.8,29.9,30.23,WNW,288,2.0,8.0,79,0.00,,,0.00,WeatherCatV1.02B3,2013-02-03 10:20:00,
2013-02-03 04:25:00,35.6,30.0,30.23,NW,311,1.0,2.0,80,0.00,,,0.00,WeatherCatV1.02B3,2013-02-03 10:25:00,
2013-02-03 04:30:00,35.5,30.0,30.23,WNW,288,2.0,3.0,80,0.00,,,0.00,WeatherCatV1.02B3,2013-02-03 10:30:00,
2013-02-03 04:35:00,35.3,29.8,30.23,North,350,1.0,4.0,80,0.00,,,0.00,WeatherCatV1.02B3,2013-02-03 10:35:00,
2013-02-03 04:40:00,35.1,29.9,30.23,NW,313,2.0,5.0,81,0.00,,,0.00,WeatherCatV1.02B3,2013-02-03 10:40:00,
2013-02-03 04:42:00,35.1,29.9,30.23,WNW,298,4.0,6.0,81,0.00,,,0.00,WeatherCatV1.02B3,2013-02-03 10:42:00,
2013-02-03 04:47:00,35.0,29.8,30.24,WNW,302,1.0,6.0,81,0.00,,,0.00,WeatherCatV1.02B3,2013-02-03 10:47:00,
2013-02-03 04:52:00,34.9,29.7,30.24,WNW,300,1.0,5.0,81,0.00,,,0.00,WeatherCatV1.02B3,2013-02-03 10:52:00,
2013-02-03 04:57:00,34.9,29.7,30.24,West,275,4.0,4.0,81,0.00,,,0.00,WeatherCatV1.02B3,2013-02-03 10:57:00,
2013-02-03 05:02:00,34.8,29.9,30.24,NW,318,1.0,5.0,82,0.00,,,0.00,WeatherCatV1.02B3,2013-02-03 11:02:00,
2013-02-03 05:07:00,34.7,29.8,30.24,NW,311,3.0,3.0,82,0.00,,,0.00,WeatherCatV1.02B3,2013-02-03 11:07:00,
2013-02-03 05:12:00,34.6,29.7,30.23,WNW,286,0.0,3.0,82,0.00,,,0.00,WeatherCatV1.02B3,2013-02-03 11:12:00,
2013-02-03 05:17:00,34.5,29.6,30.24,NW,311,1.0,3.0,82,0.00,,,0.00,WeatherCatV1.02B3,2013-02-03 11:17:00,
2013-02-03 05:22:00,34.4,29.5,30.24,WNW,292,2.0,3.0,82,0.00,,,0.00,WeatherCatV1.02B3,2013-02-03 11:22:00,
2013-02-03 05:26:00,34.3,29.4,30.24,NW,314,1.0,4.0,82,0.00,,,0.00,WeatherCatV1.02B3,2013-02-03 11:26:00,
2013-02-03 05:31:00,34.2,29.3,30.24,WNW,294,1.0,4.0,82,0.00,,,0.00,WeatherCatV1.02B3,2013-02-03 11:31:00,
2013-02-03 05:36:00,34.0,29.4,30.24,NNW,327,4.0,6.0,83,0.00,,,0.00,WeatherCatV1.02B3,2013-02-03 11:36:00,
2013-02-03 05:41:00,33.9,29.3,30.24,WSW,241,2.0,7.0,83,0.00,,,0.00,WeatherCatV1.02B3,2013-02-03 11:41:00,
2013-02-03 05:46:00,33.8,29.2,30.24,WNW,301,1.0,4.0,83,0.00,,,0.00,WeatherCatV1.02B3,2013-02-03 11:46:00,
2013-02-03 05:51:00,33.7,29.4,30.25,NW,312,1.0,8.0,84,0.00,,,0.00,WeatherCatV1.02B3,2013-02-03 11:51:00,
2013-02-03 05:56:00,33.6,29.3,30.24,West,261,2.0,6.0,84,0.00,,,0.00,WeatherCatV1.02B3,2013-02-03 11:56:00,
2013-02-03 06:01:00,33.5,29.2,30.24,WNW,301,2.0,6.0,84,0.00,,,0.00,WeatherCatV1.02B3,2013-02-03 12:01:00,
2013-02-03 06:06:00,33.5,29.2,30.24,NW,304,1.0,6.0,84,0.00,,,0.00,WeatherCatV1.02B3,2013-02-03 12:06:00,
2013-02-03 06:11:00,33.5,29.2,30.25,NW,304,4.0,9.0,84,0.00,,,0.00,WeatherCatV1.02B3,2013-02-03 12:11:00,
2013-02-03 06:16:00,33.6,29.3,30.25,NW,317,5.0,9.0,84,0.00,,,0.00,WeatherCatV1.02B3,2013-02-03 12:16:00,
2013-02-03 06:21:00,34.1,29.8,30.25,NW,312,5.0,14.0,84,0.00,,,0.00,WeatherCatV1.02B3,2013-02-03 12:21:00,
2013-02-03 06:26:00,34.4,29.8,30.25,NW,305,5.0,6.0,83,0.00,,,0.00,WeatherCatV1.02B3,2013-02-03 12:26:00,
2013-02-03 06:31:00,34.5,29.6,30.26,NW,320,6.0,7.0,82,0.00,,,0.00,WeatherCatV1.02B3,2013-02-03 12:31:00,
2013-02-03 06:36:00,34.5,29.6,30.25,West,281,3.0,10.0,82,0.00,,,0.00,WeatherCatV1.02B3,2013-02-03 12:36:00,
2013-02-03 06:41:00,34.5,29.6,30.25,NW,317,7.0,13.0,82,0.00,,,0.00,WeatherCatV1.02B3,2013-02-03 12:41:00,
2013-02-03 06:46:00,34.7,29.5,30.26,WNW,289,4.0,5.0,81,0.00,,,0.00,WeatherCatV1.02B3,2013-02-03 12:46:00,
2013-02-03 06:51:00,34.7,29.5,30.26,NW,313,8.0,13.0,81,0.00,,,0.00,WeatherCatV1.02B3,2013-02-03 12:51:00,
2013-02-03 06:56:00,34.7,29.5,30.26,NNW,331,6.0,12.0,81,0.00,,,0.00,WeatherCatV1.02B3,2013-02-03 12:56:00,
2013-02-03 07:01:00,34.8,29.3,30.26,NNW,338,4.0,12.0,80,0.00,,,0.00,WeatherCatV1.02B3,2013-02-03 13:01:00,
2013-02-03 07:06:00,34.9,29.4,30.25,NW,321,7.0,7.0,80,0.00,,,0.00,WeatherCatV1.02B3,2013-02-03 13:06:00,
2013-02-03 07:11:00,34.8,29.3,30.26,NW,325,8.0,11.0,80,0.00,,,0.00,WeatherCatV1.02B3,2013-02-03 13:11:00,
2013-02-03 07:16:00,34.8,29.3,30.26,NNW,339,6.0,12.0,80,0.00,,,0.00,WeatherCatV1.02B3,2013-02-03 13:16:00,
2013-02-03 07:21:00,34.6,29.1,30.27,WNW,294,3.0,6.0,80,0.00,,,0.00,WeatherCatV1.02B3,2013-02-03 13:21:00,
2013-02-03 07:26:00,34.5,29.3,30.27,WNW,303,1.0,7.0,81,0.00,,,0.00,WeatherCatV1.02B3,2013-02-03 13:26:00,
2013-02-03 07:31:00,34.4,29.2,30.27,NW,313,3.0,7.0,81,0.00,,,0.00,WeatherCatV1.02B3,2013-02-03 13:31:00,
2013-02-03 07:36:00,34.3,29.1,30.27,NW,317,9.0,9.0,81,0.00,,,0.00,WeatherCatV1.02B3,2013-02-03 13:36:00,
2013-02-03 07:41:00,34.3,29.4,30.27,WNW,292,3.0,9.0,82,0.00,,,0.00,WeatherCatV1.02B3,2013-02-03 13:41:00,
2013-02-03 07:46:00,34.4,29.5,30.27,NNW,328,8.0,13.0,82,0.00,,,0.00,WeatherCatV1.02B3,2013-02-03 13:46:00,
2013-02-03 07:51:00,34.6,29.7,30.27,West,267,5.0,13.0,82,0.00,,,0.00,WeatherCatV1.02B3,2013-02-03 13:51:00,
2013-02-03 07:56:00,34.9,29.7,30.28,NW,308,5.0,12.0,81,0.00,,,0.00,WeatherCatV1.02B3,2013-02-03 13:56:00,
2013-02-03 08:01:00,35.2,29.7,30.28,NNW,335,13.0,13.0,80,0.00,,,0.00,WeatherCatV1.02B3,2013-02-03 14:01:00,
2013-02-03 08:06:00,35.4,29.5,30.28,NW,312,7.0,13.0,79,0.00,,,0.00,WeatherCatV1.02B3,2013-02-03 14:06:00,
2013-02-03 08:11:00,35.6,29.7,30.28,NNW,341,17.0,21.0,79,0.00,,,0.00,WeatherCatV1.02B3,2013-02-03 14:11:00,
2013-02-03 08:16:00,35.7,29.2,30.29,North,355,9.0,20.0,77,0.00,,,0.00,WeatherCatV1.02B3,2013-02-03 14:16:00,
2013-02-03 08:21:00,35.9,29.7,30.29,NNW,329,13.0,16.0,78,0.00,,,0.00,WeatherCatV1.02B3,2013-02-03 14:21:00,
2013-02-03 08:26:00,36.1,29.6,30.29,WNW,299,12.0,18.0,77,0.00,,,0.00,WeatherCatV1.02B3,2013-02-03 14:26:00,
2013-02-03 08:31:00,36.2,29.7,30.29,NW,324,10.0,12.0,77,0.00,,,0.00,WeatherCatV1.02B3,2013-02-03 14:31:00,
2013-02-03 08:36:00,36.4,29.9,30.29,NNW,330,12.0,14.0,77,0.00,,,0.00,WeatherCatV1.02B3,2013-02-03 14:36:00,
2013-02-03 08:41:00,36.6,29.8,30.30,NNW,329,8.0,13.0,76,0.00,,,0.00,WeatherCatV1.02B3,2013-02-03 14:41:00,
2013-02-03 08:46:00,36.9,29.7,30.30,NNW,346,11.0,16.0,75,0.00,,,0.00,WeatherCatV1.02B3,2013-02-03 14:46:00,
2013-02-03 08:51:00,37.1,29.9,30.30,NW,312,10.0,13.0,75,0.00,,,0.00,WeatherCatV1.02B3,2013-02-03 14:51:00,
2013-02-03 08:56:00,37.3,29.8,30.30,NW,326,8.0,16.0,74,0.00,,,0.00,WeatherCatV1.02B3,2013-02-03 14:56:00,
2013-02-03 09:01:00,37.5,29.6,30.30,NNW,337,8.0,15.0,73,0.00,,,0.00,WeatherCatV1.02B3,2013-02-03 15:01:00,
2013-02-03 09:06:00,37.8,29.3,30.30,NNW,335,11.0,13.0,71,0.00,,,0.00,WeatherCatV1.02B3,2013-02-03 15:06:00,
2013-02-03 09:11:00,38.2,28.9,30.30,NNW,346,7.0,14.0,69,0.00,,,0.00,WeatherCatV1.02B3,2013-02-03 15:11:00,
2013-02-03 09:16:00,38.5,29.2,30.30,NW,319,10.0,10.0,69,0.00,,,0.00,WeatherCatV1.02B3,2013-02-03 15:16:00,
2013-02-03 09:21:00,38.8,28.4,30.31,NNW,328,9.0,18.0,66,0.00,,,0.00,WeatherCatV1.02B3,2013-02-03 15:21:00,
2013-02-03 09:26:00,39.1,28.3,30.31,North,355,10.0,17.0,65,0.00,,,0.00,WeatherCatV1.02B3,2013-02-03 15:26:00,
2013-02-03 09:31:00,39.4,27.9,30.32,NNW,331,4.0,13.0,63,0.00,,,0.00,WeatherCatV1.02B3,2013-02-03 15:31:00,
2013-02-03 09:36:00,39.8,27.9,30.32,NNW,348,9.0,13.0,62,0.00,,,0.00,WeatherCatV1.02B3,2013-02-03 15:36:00,
2013-02-03 09:41:00,40.1,28.1,30.32,North,11,7.0,10.0,62,0.00,,,0.00,WeatherCatV1.02B3,2013-02-03 15:41:00,
2013-02-03 09:46:00,40.4,28.0,30.32,NNW,338,5.0,14.0,61,0.00,,,0.00,WeatherCatV1.02B3,2013-02-03 15:46:00,
2013-02-03 09:51:00,40.6,27.8,30.32,North,355,9.0,10.0,60,0.00,,,0.00,WeatherCatV1.02B3,2013-02-03 15:51:00,
2013-02-03 09:56:00,40.8,27.2,30.32,NNW,327,11.0,15.0,58,0.00,,,0.00,WeatherCatV1.02B3,2013-02-03 15:56:00,
2013-02-03 10:01:00,40.7,25.8,30.32,NW,324,7.0,19.0,55,0.00,,,0.00,WeatherCatV1.02B3,2013-02-03 16:01:00,
2013-02-03 10:06:00,40.8,25.9,30.32,North,350,10.0,15.0,55,0.00,,,0.00,WeatherCatV1.02B3,2013-02-03 16:06:00,
2013-02-03 10:11:00,41.0,26.1,30.32,NNW,339,5.0,14.0,55,0.00,,,0.00,WeatherCatV1.02B3,2013-02-03 16:11:00,
2013-02-03 10:16:00,41.3,25.9,30.32,NNW,332,8.0,18.0,54,0.00,,,0.00,WeatherCatV1.02B3,2013-02-03 16:16:00,
2013-02-03 10:21:00,41.5,24.3,30.32,NNW,347,8.0,23.0,50,0.00,,,0.00,WeatherCatV1.02B3,2013-02-03 16:21:00,
2013-02-03 10:26:00,41.3,25.0,30.32,North,5,9.0,14.0,52,0.00,,,0.00,WeatherCatV1.02B3,2013-02-03 16:26:00,
2013-02-03 10:31:00,41.3,24.6,30.32,NNW,338,16.0,20.0,51,0.00,,,0.00,WeatherCatV1.02B3,2013-02-03 16:31:00,
2013-02-03 10:36:00,41.4,24.6,30.32,NNW,331,9.0,16.0,51,0.00,,,0.00,WeatherCatV1.02B3,2013-02-03 16:36:00,
2013-02-03 10:41:00,41.8,25.0,30.32,NNW,342,13.0,19.0,51,0.00,,,0.00,WeatherCatV1.02B3,2013-02-03 16:41:00,
2013-02-03 10:46:00,41.8,24.5,30.32,NW,311,9.0,15.0,50,0.00,,,0.00,WeatherCatV1.02B3,2013-02-03 16:46:00,
2013-02-03 10:51:00,41.9,24.1,30.32,NW,324,7.0,16.0,49,0.00,,,0.00,WeatherCatV1.02B3,2013-02-03 16:51:00,
2013-02-03 10:56:00,42.2,24.9,30.32,North,355,12.0,17.0,50,0.00,,,0.00,WeatherCatV1.02B3,2013-02-03 16:56:00,
2013-02-03 11:01:00,42.3,25.5,30.32,WNW,292,8.0,9.0,51,0.00,,,0.00,WeatherCatV1.02B3,2013-02-03 17:01:00,
2013-02-03 11:06:00,42.6,24.3,30.32,West,281,5.0,16.0,48,0.00,,,0.00,WeatherCatV1.02B3,2013-02-03 17:06:00,
2013-02-03 11:11:00,42.9,25.1,30.32,NNW,342,6.0,13.0,49,0.00,,,0.00,WeatherCatV1.02B3,2013-02-03 17:11:00,
2013-02-03 11:16:00,43.1,25.3,30.32,NNW,337,7.0,13.0,49,0.00,,,0.00,WeatherCatV1.02B3,2013-02-03 17:16:00,
2013-02-03 11:21:00,43.1,25.3,30.32,NNW,341,5.0,9.0,49,0.00,,,0.00,WeatherCatV1.02B3,2013-02-03 17:21:00,
2013-02-03 11:26:00,43.6,25.7,30.32,NW,311,4.0,12.0,49,0.00,,,0.00,WeatherCatV1.02B3,2013-02-03 17:26:00,
2013-02-03 11:31:00,44.0,25.6,30.31,NW,318,12.0,14.0,48,0.00,,,0.00,WeatherCatV1.02B3,2013-02-03 17:31:00,
2013-02-03 11:36:00,44.2,25.3,30.31,WNW,302,7.0,11.0,47,0.00,,,0.00,WeatherCatV1.02B3,2013-02-03 17:36:00,
2013-02-03 11:41:00,44.4,25.4,30.31,North,10,7.0,10.0,47,0.00,,,0.00,WeatherCatV1.02B3,2013-02-03 17:41:00,
2013-02-03 11:46:00,44.8,25.8,30.31,North,5,6.0,8.0,47,0.00,,,0.00,WeatherCatV1.02B3,2013-02-03 17:46:00,
2013-02-03 11:51:00,45.1,25.6,30.30,North,351,3.0,6.0,46,0.00,,,0.00,WeatherCatV1.02B3,2013-02-03 17:51:00,
2013-02-03 11:56:00,45.4,25.3,30.30,NNW,327,13.0,15.0,45,0.00,,,0.00,WeatherCatV1.02B3,2013-02-03 17:56:00,
2013-02-03 12:01:00,45.4,25.3,30.30,WNW,302,4.0,8.0,45,0.00,,,0.00,WeatherCatV1.02B3,2013-02-03 18:01:00,
2013-02-03 12:06:00,45.7,25.6,30.30,NNW,336,10.0,10.0,45,0.00,,,0.00,WeatherCatV1.02B3,2013-02-03 18:06:00,
2013-02-03 12:11:00,45.9,24.7,30.29,NW,325,7.0,8.0,43,0.00,,,0.00,WeatherCatV1.02B3,2013-02-03 18:11:00,
2013-02-03 12:16:00,45.9,24.7,30.29,NNW,329,11.0,12.0,43,0.00,,,0.00,WeatherCatV1.02B3,2013-02-03 18:16:00,
2013-02-03 12:21:00,46.0,23.6,30.29,NNW,347,7.0,11.0,41,0.00,,,0.00,WeatherCatV1.02B3,2013-02-03 18:21:00,
2013-02-03 12:26:00,46.0,24.8,30.28,NNW,336,9.0,9.0,43,0.00,,,0.00,WeatherCatV1.02B3,2013-02-03 18:26:00,
2013-02-03 12:31:00,46.2,25.0,30.28,NNW,347,6.0,8.0,43,0.00,,,0.00,WeatherCatV1.02B3,2013-02-03 18:31:00,
2013-02-03 12:36:00,46.5,23.5,30.27,North,355,11.0,13.0,40,0.00,,,0.00,WeatherCatV1.02B3,2013-02-03 18:36:00,
2013-02-03 12:41:00,46.2,22.0,30.27,NNW,343,10.0,14.0,38,0.00,,,0.00,WeatherCatV1.02B3,2013-02-03 18:41:00,
2013-02-03 12:46:00,45.8,22.9,30.27,North,350,14.0,14.0,40,0.00,,,0.00,WeatherCatV1.02B3,2013-02-03 18:46:00,
2013-02-03 12:51:00,45.8,22.3,30.27,NW,323,6.0,11.0,39,0.00,,,0.00,WeatherCatV1.02B3,2013-02-03 18:51:00,
2013-02-03 12:56:00,46.0,23.0,30.26,North,5,5.0,10.0,40,0.00,,,0.00,WeatherCatV1.02B3,2013-02-03 18:56:00,
2013-02-03 13:01:00,46.4,23.4,30.26,West,265,5.0,5.0,40,0.00,,,0.00,WeatherCatV1.02B3,2013-02-03 19:01:00,
2013-02-03 13:06:00,46.9,25.0,30.26,North,5,4.0,9.0,42,0.00,,,0.00,WeatherCatV1.02B3,2013-02-03 19:06:00,
2013-02-03 13:11:00,47.3,24.8,30.25,NE,34,5.0,5.0,41,0.00,,,0.00,WeatherCatV1.02B3,2013-02-03 19:11:00,
2013-02-03 13:16:00,47.5,23.8,30.25,NNW,327,6.0,8.0,39,0.00,,,0.00,WeatherCatV1.02B3,2013-02-03 19:16:00,
2013-02-03 13:21:00,47.6,23.9,30.25,NNW,344,5.0,9.0,39,0.00,,,0.00,WeatherCatV1.02B3,2013-02-03 19:21:00,
2013-02-03 13:26:00,47.8,24.7,30.25,NNE,14,4.0,7.0,40,0.00,,,0.00,WeatherCatV1.02B3,2013-02-03 19:26:00,
2013-02-03 13:31:00,48.1,24.3,30.25,WSW,246,0.0,4.0,39,0.00,,,0.00,WeatherCatV1.02B3,2013-02-03 19:31:00,
2013-02-03 13:36:00,48.3,23.9,30.25,NNW,339,6.0,8.0,38,0.00,,,0.00,WeatherCatV1.02B3,2013-02-03 19:36:00,
2013-02-03 13:41:00,48.3,23.9,30.24,NW,326,3.0,8.0,38,0.00,,,0.00,WeatherCatV1.02B3,2013-02-03 19:41:00,
2013-02-03 13:46:00,48.3,22.6,30.24,NNW,336,5.0,9.0,36,0.00,,,0.00,WeatherCatV1.02B3,2013-02-03 19:46:00,
2013-02-03 13:51:00,48.4,23.3,30.24,NW,318,6.0,7.0,37,0.00,,,0.00,WeatherCatV1.02B3,2013-02-03 19:51:00,
2013-02-03 13:56:00,48.7,23.6,30.24,West,259,3.0,4.0,37,0.00,,,0.00,WeatherCatV1.02B3,2013-02-03 19:56:00,
2013-02-03 14:01:00,48.9,23.8,30.24,North,350,6.0,9.0,37,0.00,,,0.00,WeatherCatV1.02B3,2013-02-03 20:01:00,
2013-02-03 14:06:00,49.1,24.0,30.24,North,355,2.0,5.0,37,0.00,,,0.00,WeatherCatV1.02B3,2013-02-03 20:06:00,
2013-02-03 14:11:00,49.4,23.6,30.24,WNW,302,3.0,3.0,36,0.00,,,0.00,WeatherCatV1.02B3,2013-02-03 20:11:00,
2013-02-03 14:16:00,49.9,24.0,30.23,West,263,3.0,6.0,36,0.00,,,0.00,WeatherCatV1.02B3,2013-02-03 20:16:00,
2013-02-03 14:21:00,50.1,23.5,30.24,NW,325,2.0,9.0,35,0.00,,,0.00,WeatherCatV1.02B3,2013-02-03 20:21:00,
2013-02-03 14:26:00,50.2,23.6,30.23,North,0,5.0,6.0,35,0.00,,,0.00,WeatherCatV1.02B3,2013-02-03 20:26:00,
2013-02-03 14:31:00,50.3,24.4,30.23,WNW,286,2.0,8.0,36,0.00,,,0.00,WeatherCatV1.02B3,2013-02-03 20:31:00,
2013-02-03 14:36:00,50.4,23.8,30.23,NNW,329,3.0,6.0,35,0.00,,,0.00,WeatherCatV1.02B3,2013-02-03 20:36:00,
2013-02-03 14:41:00,50.3,23.7,30.23,WNW,300,3.0,5.0,35,0.00,,,0.00,WeatherCatV1.02B3,2013-02-03 20:41:00,
2013-02-03 14:46:00,50.3,23.7,30.23,West,278,3.0,6.0,35,0.00,,,0.00,WeatherCatV1.02B3,2013-02-03 20:46:00,
2013-02-03 14:51:00,50.5,23.9,30.23,West,277,8.0,8.0,35,0.00,,,0.00,WeatherCatV1.02B3,2013-02-03 20:51:00,
2013-02-03 14:56:00,50.4,23.1,30.23,West,260,4.0,7.0,34,0.00,,,0.00,WeatherCatV1.02B3,2013-02-03 20:56:00,
2013-02-03 15:01:00,50.2,22.9,30.23,NW,321,1.0,6.0,34,0.00,,,0.00,WeatherCatV1.02B3,2013-02-03 21:01:00,
2013-02-03 15:06:00,50.1,23.5,30.22,West,275,0.0,10.0,35,0.00,,,0.00,WeatherCatV1.02B3,2013-02-03 21:06:00,
2013-02-03 15:11:00,50.3,25.0,30.23,West,261,3.0,5.0,37,0.00,,,0.00,WeatherCatV1.02B3,2013-02-03 21:11:00,
2013-02-03 15:16:00,50.3,23.7,30.22,WSW,248,2.0,8.0,35,0.00,,,0.00,WeatherCatV1.02B3,2013-02-03 21:16:00,
2013-02-03 15:21:00,50.3,24.4,30.22,SW,228,2.0,3.0,36,0.00,,,0.00,WeatherCatV1.02B3,2013-02-03 21:21:00,
2013-02-03 15:26:00,50.1,22.8,30.21,WNW,296,3.0,6.0,34,0.00,,,0.00,WeatherCatV1.02B3,2013-02-03 21:26:00,
2013-02-03 15:31:00,50.1,24.2,30.21,SW,223,1.0,2.0,36,0.00,,,0.00,WeatherCatV1.02B3,2013-02-03 21:31:00,
2013-02-03 15:36:00,50.3,24.4,30.21,West,259,2.0,6.0,36,0.00,,,0.00,WeatherCatV1.02B3,2013-02-03 21:36:00,
2013-02-03 15:41:00,50.3,24.4,30.21,NW,326,1.0,3.0,36,0.00,,,0.00,WeatherCatV1.02B3,2013-02-03 21:41:00,
2013-02-03 15:46:00,50.4,25.8,30.21,SW,235,6.0,7.0,38,0.00,,,0.00,WeatherCatV1.02B3,2013-02-03 21:46:00,
2013-02-03 15:51:00,50.2,24.9,30.20,SW,217,3.0,9.0,37,0.00,,,0.00,WeatherCatV1.02B3,2013-02-03 21:51:00,
2013-02-03 15:56:00,49.9,24.7,30.20,WSW,242,4.0,8.0,37,0.00,,,0.00,WeatherCatV1.02B3,2013-02-03 21:56:00,
2013-02-03 16:01:00,49.9,24.7,30.20,SW,228,4.0,6.0,37,0.00,,,0.00,WeatherCatV1.02B3,2013-02-03 22:01:00,
2013-02-03 16:06:00,49.7,25.1,30.19,SSW,200,3.0,3.0,38,0.00,,,0.00,WeatherCatV1.02B3,2013-02-03 22:06:00,
2013-02-03 16:11:00,49.6,25.0,30.19,SSW,201,2.0,3.0,38,0.00,,,0.00,WeatherCatV1.02B3,2013-02-03 22:11:00,
2013-02-03 16:16:00,49.5,24.3,30.18,SSE,157,4.0,4.0,37,0.00,,,0.00,WeatherCatV1.02B3,2013-02-03 22:16:00,
2013-02-03 16:21:00,49.0,24.5,30.18,SSW,194,2.0,2.0,38,0.00,,,0.00,WeatherCatV1.02B3,2013-02-03 22:21:00,
2013-02-03 16:26:00,48.8,25.6,30.18,SSW,194,0.0,1.0,40,0.00,,,0.00,WeatherCatV1.02B3,2013-02-03 22:26:00,
2013-02-03 16:31:00,48.7,25.5,30.17,SSW,197,0.0,4.0,40,0.00,,,0.00,WeatherCatV1.02B3,2013-02-03 22:31:00,
2013-02-03 16:36:00,48.5,24.7,30.17,SSW,196,3.0,3.0,39,0.00,,,0.00,WeatherCatV1.02B3,2013-02-03 22:36:00,
2013-02-03 16:41:00,48.3,24.5,30.17,SSW,210,3.0,3.0,39,0.00,,,0.00,WeatherCatV1.02B3,2013-02-03 22:41:00,
2013-02-03 16:46:00,48.0,24.2,30.17,South,180,3.0,5.0,39,0.00,,,0.00,WeatherCatV1.02B3,2013-02-03 22:46:00,
2013-02-03 16:51:00,47.8,24.7,30.17,SW,229,0.0,3.0,40,0.00,,,0.00,WeatherCatV1.02B3,2013-02-03 22:51:00,
2013-02-03 16:56:00,47.6,24.5,30.17,SSW,210,2.0,5.0,40,0.00,,,0.00,WeatherCatV1.02B3,2013-02-03 22:56:00,
2013-02-03 17:01:00,47.4,24.9,30.17,SSW,210,1.0,2.0,41,0.00,,,0.00,WeatherCatV1.02B3,2013-02-03 23:01:00,
2013-02-03 17:06:00,47.1,25.2,30.17,South,178,1.0,3.0,42,0.00,,,0.00,WeatherCatV1.02B3,2013-02-03 23:06:00,
2013-02-03 17:11:00,46.9,25.0,30.17,South,178,0.0,1.0,42,0.00,,,0.00,WeatherCatV1.02B3,2013-02-03 23:11:00,
2013-02-03 17:16:00,46.7,24.8,30.17,South,178,3.0,3.0,42,0.00,,,0.00,WeatherCatV1.02B3,2013-02-03 23:16:00,
2013-02-03 17:21:00,46.4,24.0,30.16,South,178,0.0,0.0,41,0.00,,,0.00,WeatherCatV1.02B3,2013-02-03 23:21:00,
2013-02-03 17:26:00,46.0,25.3,30.16,South,178,0.0,1.0,44,0.00,,,0.00,WeatherCatV1.02B3,2013-02-03 23:26:00,
2013-02-03 17:31:00,45.5,25.9,30.16,South,178,0.0,0.0,46,0.00,,,0.00,WeatherCatV1.02B3,2013-02-03 23:31:00,
2013-02-03 17:36:00,44.9,26.4,30.16,South,178,0.0,0.0,48,0.00,,,0.00,WeatherCatV1.02B3,2013-02-03 23:36:00,
2013-02-03 17:41:00,44.4,27.4,30.16,South,178,0.0,0.0,51,0.00,,,0.00,WeatherCatV1.02B3,2013-02-03 23:41:00,
2013-02-03 17:46:00,44.1,27.1,30.15,South,178,0.0,0.0,51,0.00,,,0.00,WeatherCatV1.02B3,2013-02-03 23:46:00,
2013-02-03 17:51:00,43.1,28.0,30.15,South,178,0.0,0.0,55,0.00,,,0.00,WeatherCatV1.02B3,2013-02-03 23:51:00,
2013-02-03 17:56:00,42.2,28.1,30.15,South,178,0.0,0.0,57,0.00,,,0.00,WeatherCatV1.02B3,2013-02-03 23:56:00,
2013-02-03 18:01:00,41.5,27.8,30.15,South,178,0.0,0.0,58,0.00,,,0.00,WeatherCatV1.02B3,2013-02-04 00:01:00,
2013-02-03 18:06:00,41.0,27.4,30.15,South,178,0.0,0.0,58,0.00,,,0.00,WeatherCatV1.02B3,2013-02-04 00:06:00,
2013-02-03 18:11:00,40.1,27.3,30.15,South,178,0.0,0.0,60,0.00,,,0.00,WeatherCatV1.02B3,2013-02-04 00:11:00,
2013-02-03 18:16:00,39.1,28.3,30.15,South,178,0.0,0.0,65,0.00,,,0.00,WeatherCatV1.02B3,2013-02-04 00:16:00,
2013-02-03 18:21:00,38.6,27.9,30.15,South,178,0.0,0.0,65,0.00,,,0.00,WeatherCatV1.02B3,2013-02-04 00:21:00,
2013-02-03 18:26:00,37.8,27.8,30.15,South,178,0.0,1.0,67,0.00,,,0.00,WeatherCatV1.02B3,2013-02-04 00:26:00,
2013-02-03 18:31:00,37.2,27.3,30.15,South,178,0.0,0.0,67,0.00,,,0.00,WeatherCatV1.02B3,2013-02-04 00:31:00,
2013-02-03 18:36:00,36.8,26.5,30.15,South,178,0.0,0.0,66,0.00,,,0.00,WeatherCatV1.02B3,2013-02-04 00:36:00,
2013-02-03 18:41:00,36.4,27.2,30.15,South,178,0.0,0.0,69,0.00,,,0.00,WeatherCatV1.02B3,2013-02-04 00:41:00,
2013-02-03 18:46:00,36.0,27.2,30.14,South,178,0.0,1.0,70,0.00,,,0.00,WeatherCatV1.02B3,2013-02-04 00:46:00,
2013-02-03 18:51:00,35.8,26.3,30.14,South,178,1.0,2.0,68,0.00,,,0.00,WeatherCatV1.02B3,2013-02-04 00:51:00,
2013-02-03 18:56:00,35.8,26.6,30.14,South,178,0.0,1.0,69,0.00,,,0.00,WeatherCatV1.02B3,2013-02-04 00:56:00,
2013-02-03 19:01:00,36.0,26.8,30.14,South,178,0.0,2.0,69,0.00,,,0.00,WeatherCatV1.02B3,2013-02-04 01:01:00,
2013-02-03 19:06:00,36.3,26.0,30.14,SSE,159,0.0,2.0,66,0.00,,,0.00,WeatherCatV1.02B3,2013-02-04 01:06:00,
2013-02-03 19:11:00,36.7,26.1,30.14,South,173,2.0,2.0,65,0.00,,,0.00,WeatherCatV1.02B3,2013-02-04 01:11:00,
2013-02-03 19:16:00,37.2,25.8,30.14,South,172,0.0,3.0,63,0.00,,,0.00,WeatherCatV1.02B3,2013-02-04 01:16:00,
2013-02-03 19:21:00,38.0,25.8,30.13,SSE,166,1.0,2.0,61,0.00,,,0.00,WeatherCatV1.02B3,2013-02-04 01:21:00,
2013-02-03 19:26:00,38.4,26.9,30.13,SSE,166,1.0,3.0,63,0.00,,,0.00,WeatherCatV1.02B3,2013-02-04 01:26:00,
2013-02-03 19:31:00,38.7,26.0,30.13,SSE,166,0.0,2.0,60,0.00,,,0.00,WeatherCatV1.02B3,2013-02-04 01:31:00,
2013-02-03 19:36:00,38.9,25.8,30.12,SSE,166,0.0,1.0,59,0.00,,,0.00,WeatherCatV1.02B3,2013-02-04 01:36:00,
2013-02-03 19:41:00,39.1,26.0,30.13,SSE,166,0.0,3.0,59,0.00,,,0.00,WeatherCatV1.02B3,2013-02-04 01:41:00,
2013-02-03 19:46:00,39.2,26.1,30.12,SSE,166,0.0,3.0,59,0.00,,,0.00,WeatherCatV1.02B3,2013-02-04 01:46:00,
2013-02-03 19:51:00,39.2,26.5,30.12,SSE,166,1.0,1.0,60,0.00,,,0.00,WeatherCatV1.02B3,2013-02-04 01:51:00,
2013-02-03 19:56:00,39.1,26.4,30.12,SSE,166,0.0,0.0,60,0.00,,,0.00,WeatherCatV1.02B3,2013-02-04 01:56:00,
2013-02-03 20:01:00,39.1,26.4,30.13,SSE,166,0.0,1.0,60,0.00,,,0.00,WeatherCatV1.02B3,2013-02-04 02:01:00,
2013-02-03 20:06:00,39.0,26.3,30.12,SSE,166,0.0,3.0,60,0.00,,,0.00,WeatherCatV1.02B3,2013-02-04 02:06:00,
2013-02-03 20:11:00,39.1,26.0,30.12,SSE,166,0.0,3.0,59,0.00,,,0.00,WeatherCatV1.02B3,2013-02-04 02:11:00,
2013-02-03 20:16:00,39.1,25.6,30.12,South,189,0.0,5.0,58,0.00,,,0.00,WeatherCatV1.02B3,2013-02-04 02:16:00,
2013-02-03 20:21:00,39.3,26.2,30.12,SSW,196,1.0,3.0,59,0.00,,,0.00,WeatherCatV1.02B3,2013-02-04 02:21:00,
2013-02-03 20:26:00,39.5,26.4,30.12,South,191,4.0,4.0,59,0.00,,,0.00,WeatherCatV1.02B3,2013-02-04 02:26:00,
2013-02-03 20:31:00,39.7,26.1,30.12,SSE,152,0.0,4.0,58,0.00,,,0.00,WeatherCatV1.02B3,2013-02-04 02:31:00,
2013-02-03 20:36:00,39.9,25.9,30.12,SSE,161,2.0,5.0,57,0.00,,,0.00,WeatherCatV1.02B3,2013-02-04 02:36:00,
2013-02-03 20:41:00,40.1,26.1,30.11,SSE,163,2.0,2.0,57,0.00,,,0.00,WeatherCatV1.02B3,2013-02-04 02:41:00,
2013-02-03 20:46:00,40.3,25.9,30.11,SSW,194,2.0,5.0,56,0.00,,,0.00,WeatherCatV1.02B3,2013-02-04 02:46:00,
2013-02-03 20:51:00,40.5,25.2,30.11,SSW,206,3.0,5.0,54,0.00,,,0.00,WeatherCatV1.02B3,2013-02-04 02:51:00,
2013-02-03 20:56:00,40.9,25.6,30.11,South,171,2.0,6.0,54,0.00,,,0.00,WeatherCatV1.02B3,2013-02-04 02:56:00,
2013-02-03 21:01:00,41.3,25.9,30.11,SSE,150,2.0,3.0,54,0.00,,,0.00,WeatherCatV1.02B3,2013-02-04 03:01:00,
2013-02-03 21:05:00,41.4,26.0,30.11,SSE,163,5.0,5.0,54,0.00,,,0.00,WeatherCatV1.02B3,2013-02-04 03:05:00,
2013-02-03 21:10:00,41.6,26.2,30.11,SSE,155,1.0,6.0,54,0.00,,,0.00,WeatherCatV1.02B3,2013-02-04 03:10:00,
2013-02-03 21:15:00,41.6,25.8,30.11,South,175,2.0,4.0,53,0.00,,,0.00,WeatherCatV1.02B3,2013-02-04 03:15:00,
2013-02-03 21:20:00,41.7,25.8,30.11,SE,144,1.0,4.0,53,0.00,,,0.00,WeatherCatV1.02B3,2013-02-04 03:20:00,
2013-02-03 21:25:00,41.7,26.3,30.10,SSE,166,3.0,6.0,54,0.00,,,0.00,WeatherCatV1.02B3,2013-02-04 03:25:00,
2013-02-03 21:30:00,41.7,25.8,30.10,SSE,163,3.0,4.0,53,0.00,,,0.00,WeatherCatV1.02B3,2013-02-04 03:30:00,
2013-02-03 21:35:00,41.7,25.8,30.10,SSE,165,2.0,4.0,53,0.00,,,0.00,WeatherCatV1.02B3,2013-02-04 03:35:00,
2013-02-03 21:40:00,41.7,25.8,30.10,SE,142,1.0,5.0,53,0.00,,,0.00,WeatherCatV1.02B3,2013-02-04 03:40:00,
2013-02-03 21:45:00,41.7,25.8,30.10,SE,146,3.0,7.0,53,0.00,,,0.00,WeatherCatV1.02B3,2013-02-04 03:45:00,
2013-02-03 21:50:00,41.8,26.4,30.09,SE,146,3.0,6.0,54,0.00,,,0.00,WeatherCatV1.02B3,2013-02-04 03:50:00,
2013-02-03 21:55:00,41.8,25.9,30.09,South,184,1.0,3.0,53,0.00,,,0.00,WeatherCatV1.02B3,2013-02-04 03:55:00,
2013-02-03 22:00:00,41.7,25.4,30.09,SSE,151,3.0,6.0,52,0.00,,,0.00,WeatherCatV1.02B3,2013-02-04 04:00:00,
2013-02-03 22:06:00,41.8,25.9,30.09,SSE,163,1.0,3.0,53,0.00,,,0.00,WeatherCatV1.02B3,2013-02-04 04:06:00,
2013-02-03 22:11:00,41.8,25.5,30.09,SSE,150,2.0,3.0,52,0.00,,,0.00,WeatherCatV1.02B3,2013-02-04 04:11:00,
2013-02-03 22:16:00,41.9,25.6,30.09,South,188,1.0,3.0,52,0.00,,,0.00,WeatherCatV1.02B3,2013-02-04 04:16:00,
2013-02-03 22:21:00,42.0,25.7,30.08,South,169,3.0,4.0,52,0.00,,,0.00,WeatherCatV1.02B3,2013-02-04 04:21:00,
2013-02-03 22:26:00,42.0,25.7,30.08,SSE,161,0.0,4.0,52,0.00,,,0.00,WeatherCatV1.02B3,2013-02-04 04:26:00,
2013-02-03 22:31:00,41.9,25.6,30.08,SSE,163,2.0,4.0,52,0.00,,,0.00,WeatherCatV1.02B3,2013-02-04 04:31:00,
2013-02-03 22:36:00,41.8,25.9,30.08,South,178,2.0,3.0,53,0.00,,,0.00,WeatherCatV1.02B3,2013-02-04 04:36:00,
2013-02-03 22:41:00,41.6,25.8,30.07,SSE,167,2.0,4.0,53,0.00,,,0.00,WeatherCatV1.02B3,2013-02-04 04:41:00,
2013-02-03 22:46:00,41.3,25.9,30.07,SSE,159,1.0,4.0,54,0.00,,,0.00,WeatherCatV1.02B3,2013-02-04 04:46:00,
2013-02-03 22:51:00,41.1,25.3,30.07,SE,131,1.0,3.0,53,0.00,,,0.00,WeatherCatV1.02B3,2013-02-04 04:51:00,
2013-02-03 22:56:00,41.0,25.2,30.07,South,178,2.0,2.0,53,0.00,,,0.00,WeatherCatV1.02B3,2013-02-04 04:56:00,
2013-02-03 23:00:00,40.8,25.5,30.07,South,169,2.0,4.0,54,0.00,,,0.00,WeatherCatV1.02B3,2013-02-04 05:00:00,
2013-02-03 23:03:00,40.7,25.8,30.07,SSE,153,3.0,3.0,55,0.00,,,0.00,WeatherCatV1.02B3,2013-02-04 05:03:00,
2013-02-03 23:08:00,40.4,26.0,30.06,SSE,159,0.0,2.0,56,0.00,,,0.00,WeatherCatV1.02B3,2013-02-04 05:08:00,
2013-02-03 23:13:00,40.2,25.8,30.06,SSE,167,1.0,4.0,56,0.00,,,0.00,WeatherCatV1.02B3,2013-02-04 05:13:00,
2013-02-03 23:18:00,39.9,25.5,30.06,SSE,163,1.0,5.0,56,0.00,,,0.00,WeatherCatV1.02B3,2013-02-04 05:18:00,
2013-02-03 23:23:00,39.7,25.3,30.06,South,175,0.0,5.0,56,0.00,,,0.00,WeatherCatV1.02B3,2013-02-04 05:23:00,
2013-02-03 23:28:00,39.6,25.2,30.06,SE,144,2.0,3.0,56,0.00,,,0.00,WeatherCatV1.02B3,2013-02-04 05:28:00,
2013-02-03 23:33:00,39.3,25.8,30.05,SSE,147,1.0,4.0,58,0.00,,,0.00,WeatherCatV1.02B3,2013-02-04 05:33:00,
2013-02-03 23:38:00,39.1,25.6,30.05,SSE,157,1.0,3.0,58,0.00,,,0.00,WeatherCatV1.02B3,2013-02-04 05:38:00,
2013-02-03 23:43:00,38.9,25.4,30.05,SSE,162,1.0,6.0,58,0.00,,,0.00,WeatherCatV1.02B3,2013-02-04 05:43:00,
2013-02-03 23:48:00,38.8,25.3,30.05,South,178,0.0,3.0,58,0.00,,,0.00,WeatherCatV1.02B3,2013-02-04 05:48:00,
2013-02-03 23:53:00,38.8,25.3,30.05,South,188,1.0,5.0,58,0.00,,,0.00,WeatherCatV1.02B3,2013-02-04 05:53:00,
2013-02-03 23:58:00,38.9,25.4,30.05,SE,143,0.0,4.0,58,0.00,,,0.00,WeatherCatV1.02B3,2013-02-04 05:58:00,